STARLINK-4066 (53148 NORAD) Tracking and Keplerian Element Data

This shows tracking and keplerian element data for the satellite.

Feedback or suggestion? Click here.




ElementValue
Catalog53148
NameSTARLINK-4066
Epoch Orbit1171
Epoch Day270.25001157
Epoch Year2022
RAAN67.9479
Inclination53.2173
Eccentricity0.0001635
Argument of Perigee49.3944
Mean Anonmoly138.9798
Mean Motion15.08822238
Decay Rate0.00030356
L11 53148U 22083S 22270.25001157 .00030356 00000+0 19181-2 0 9998
L22 53148 53.2173 67.9479 0001635 49.3944 138.9798 15.08822238 11718

Live tracking and technical data element details for STARLINK-4066 (NORAD 53148). STARLINK-4066 can be tracked NOW for your location showing map with azimuth and elevation plus other details from your city location.

Track the satellite on the map from your city or location and see movement details for azimuth, elevation, latitude, longitude, range, height, and movement on the map or in text.







IsCatalogInMostPopularTable: catalog: 53148, numindb: 6
Update: records affected: 1



GetName: 53148 STARLINK-4066

Hit Count: updated at: Fri, 30 Sep 2022 04:12:37 GMT